[[{"header":{"parameterUnit":"m.s-1","parameterCategory":1,"la1":30.2991,"la2":30.254,"lo1":-89.0895,"lo2":-89.0444,"dy":0.0017,"dx":0.0017,"nx":28,"ny":28,"refTime":"2023-09-23T03:00:00:Z","depth":0,"parameterNumber":2,"parameterNumberName":"U-component_of_WINDS"},"data":[0,0,0,0,0,0,0,0,0,0,0,0,0,0,0,0,0,0,0,0,0,0,0,0,0,0,0,0,0,0,0,0,0,0,0,0,0,0,0,0,0,0,0,0,0,0,0,0,0,0,0,0,0,0,0,0,0,0,0.2825,0.2825,0,0.2863,0.2864,0.2864,0.2894,0.2895,0.2895,0.2895,0.2932,0.2933,0.2934,0,0,0,0,0,0,0,0,0,0,0,0,0,0.2773,0.2774,0.2825,0.2825,0.2826,0.2863,0.2864,0.2864,0.2894,0.2895,0.2895,0.2895,0.2932,0.2933,0.2934,0,0,0,0,0,0,0,0,0,0,0,0,0,0.2802,0.2774,0.2825,0.2845,0.2847,0.2863,0.2864,0.2865,0.2894,0.2895,0.2895,0.2896,0.2932,0.2933,0.2934,0.2931,0,0,0.2937,0.2938,0,0,0,0,0,0,0,0,0.28,0.2804,0.2842,0.2844,0.2846,0.2875,0.2859,0.2887,0.2894,0.2876,0.2895,0.2896,0.2913,0.2915,0.2921,0.2933,0.2935,0.2937,0.2938,0.2938,0.2939,0,0,0,0,0,0,0,0.2798,0.2802,0.284,0.2842,0.2845,0.2851,0.2856,0.2865,0.2891,0.2878,0.288,0.2885,0.2914,0.292,0.2923,0.2935,0.2937,0.2938,0.2939,0.2939,0.2946,0.2945,0,0,0,0,0,0,0.2793,0.28,0.2839,0.2841,0.2824,0.2852,0.2857,0.2865,0.2891,0.2896,0.2884,0.2886,0.2918,0.2921,0.2924,0.2922,0.2938,0.2939,0.294,0.2946,0.2946,0.2945,0,0,0,0,0,0,0.2792,0.2797,0.2837,0.2821,0.2827,0.2852,0.2861,0.2866,0.2872,0.2896,0.2901,0.2886,0.2919,0.2922,0.2929,0.2924,0.294,0.2941,0.2947,0.2946,0.2945,0.2919,0,0,0,0,0,0,0.2791,0.2796,0.2796,0.2821,0.2828,0.2843,0.2861,0.2866,0.2874,0.2877,0.2899,0.2903,0.2919,0.2928,0.293,0.2926,0.2942,0.2947,0.2946,0.2946,0.292,0.2917,0.2915,0,0,0,0,0,0.2789,0.2787,0.2796,0.28,0.2829,0.2842,0.2846,0.2865,0.2874,0.2873,0.2889,0.2903,0.2924,0.2928,0.2931,0.2927,0.2948,0.2947,0.2946,0.2921,0.2918,0.2915,0,0,0,0,0,0,0.2759,0.279,0.2801,0.2807,0.2822,0.2847,0.2848,0.2861,0.2873,0.2875,0.2898,0.2902,0.2906,0.2917,0.2921,0.2925,0.2938,0.2937,0.2918,0.2915,0.2912,0.2909,0.2942,0,0,0,0,0,0.2754,0.2764,0.279,0.2793,0.28,0.2822,0.2829,0.2843,0.2858,0.2865,0.288,0.2894,0.2904,0.291,0.2921,0.2922,0.2927,0.292,0.2918,0.2915,0.2914,0.2915,0.2912,0.2942,0.2942,0.2942,0,0,0.2742,0.276,0.2765,0.2787,0.28,0.2808,0.2827,0.2835,0.2841,0.2866,0.2873,0.2885,0.2902,0.2906,0.2908,0.2915,0.2907,0.2914,0.2912,0.2912,0.2913,0.2911,0.2908,0.2941,0.2941,0.2941,0,0,0.2725,0.274,0.2744,0.2757,0.2777,0.2792,0.2792,0.2816,0.2825,0.2833,0.2851,0.2858,0.2875,0.2886,0.2893,0.288,0.2892,0.2882,0.2867,0.2868,0.2865,0.2863,0.2857,0.2855,0.2881,0.2881,0.2881,0,0.2708,0.2722,0.2744,0.2751,0.276,0.2783,0.2786,0.2797,0.2818,0.2823,0.2831,0.2852,0.2865,0.2871,0.2868,0.2874,0.2874,0.288,0.2864,0.2862,0.2861,0.2855,0.2853,0.288,0.288,0.288,0.288,0,0.2699,0.2709,0.2709,0.273,0.2739,0.2744,0.2766,0.2772,0.2784,0.2798,0.2805,0.2822,0.2836,0.2838,0.285,0.2846,0.2849,0.286,0.2873,0.2856,0.2851,0.2849,0.2878,0.2878,0.2879,0.2879,0,0,0.2665,0.2698,0.2698,0.2707,0.273,0.2738,0.2743,0.2757,0.2761,0.2775,0.278,0.2793,0.2803,0.2812,0.2825,0.2826,0.2812,0.2836,0.2837,0.283,0.2807,0.2798,0.2795,0.2821,0.2821,0.282,0.2805,0,0.2651,0.2663,0.2683,0.2688,0.2696,0.2718,0.2722,0.2736,0.2749,0.2757,0.2771,0.278,0.2793,0.2798,0.2799,0.2814,0.2808,0.2815,0.2824,0.2824,0.2818,0.2793,0.2784,0.2768,0.2803,0.2803,0.2803,0,0.2636,0.2649,0.2656,0.2678,0.2682,0.2686,0.27,0.2708,0.2723,0.2733,0.2742,0.2757,0.2762,0.2774,0.2782,0.2786,0.2791,0.2798,0.2798,0.2799,0.2812,0.2792,0.2764,0.2761,0.28,0.28,0.2801,0,0.2609,0.2628,0.2634,0.2642,0.2668,0.267,0.2681,0.2697,0.2704,0.2716,0.2721,0.2733,0.2739,0.2748,0.2765,0.2772,0.2769,0.2783,0.2776,0.2776,0.2774,0.2774,0.2745,0.2778,0.2779,0.2779,0.2779,0,0.259,0.2593,0.2623,0.2626,0.2629,0.2651,0.2654,0.2666,0.268,0.2686,0.2705,0.271,0.2733,0.2739,0.2753,0.2756,0.2759,0.2766,0.2769,0.2763,0.2762,0.2766,0.2767,0.2778,0.2778,0.2778,0.2778,0,0.256,0.258,0.2588,0.2613,0.2619,0.262,0.264,0.2643,0.2658,0.2664,0.2667,0.2688,0.2697,0.2716,0.2729,0.2738,0.2738,0.2745,0.2733,0.2735,0.2726,0.2726,0.2698,0.2695,0.2731,0.2731,0.2731,0,0.2547,0.2549,0.2574,0.258,0.259,0.2598,0.2606,0.2627,0.2634,0.2652,0.2653,0.2664,0.2673,0.2686,0.2702,0.2712,0.2719,0.2708,0.272,0.2714,0.2717,0.2717,0.2716,0.2705,0.2705,0.2704,0.2704,0,0.252,0.253,0.254,0.2554,0.2563,0.2574,0.2587,0.259,0.2614,0.262,0.263,0.2638,0.2652,0.2661,0.2674,0.2684,0.2697,0.27,0.2699,0.2693,0.2685,0.2688,0.2724,0.2701,0.2701,0.2701,0.2701,0.2701,0.2497,0.25,0.2518,0.2529,0.2541,0.2552,0.2556,0.2571,0.258,0.2594,0.2606,0.2614,0.2629,0.2647,0.2656,0.2662,0.2669,0.2667,0.2667,0.2666,0.2663,0.2685,0.2665,0.2665,0.2665,0.2665,0.2665,0,0.247,0.2483,0.2493,0.251,0.2518,0.2532,0.2546,0.2552,0.2559,0.2572,0.2582,0.2592,0.2602,0.2619,0.2629,0.2631,0.2637,0.2632,0.2632,0.2634,0.2657,0.2656,0.2627,0.2627,0.2627,0.2627,0.2627,0.2627,0.2457,0.2463,0.2475,0.2486,0.2499,0.2508,0.2515,0.2525,0.2535,0.2547,0.2555,0.2566,0.2581,0.2592,0.2601,0.2606,0.2608,0.2601,0.2608,0.2629,0.2632,0.2636,0.2635,0.2602,0.2602,0.2584,0.2584,0.2584]},{"header":{"parameterUnit":"m.s-1","parameterCategory":1,"la1":30.2991,"la2":30.254,"lo1":-89.0895,"lo2":-89.0444,"dy":0.0017,"dx":0.0017,"nx":28,"ny":28,"refTime":"2023-09-23T03:00:00:Z","depth":0,"parameterNumber":3,"parameterNumberName":"V-component_of_WINDS"},"data":[0,0,0,0,0,0,0,0,0,0,0,0,0,0,0,0,0,0,0,0,0,0,0,0,0,0,0,0,0,0,0,0,0,0,0,0,0,0,0,0,0,0,0,0,0,0,0,0,0,0,0,0,0,0,0,0,0,0,3.3339,3.3339,0,3.3339,3.3339,3.3339,3.335,3.335,3.335,3.3351,3.335,3.3349,3.3349,0,0,0,0,0,0,0,0,0,0,0,0,0,3.3346,3.3346,3.3339,3.3339,3.3339,3.3339,3.3339,3.3339,3.335,3.335,3.3351,3.3351,3.335,3.3349,3.3349,0,0,0,0,0,0,0,0,0,0,0,0,0,3.3344,3.3346,3.3339,3.3344,3.3345,3.3339,3.3339,3.3339,3.335,3.335,3.3351,3.3351,3.335,3.3349,3.3349,3.3337,0,0,3.3347,3.3347,0,0,0,0,0,0,0,0,3.3344,3.3344,3.3343,3.3344,3.3344,3.3345,3.3341,3.3338,3.335,3.3348,3.3351,3.3351,3.3348,3.3347,3.3346,3.3337,3.3337,3.3347,3.3347,3.3347,3.3347,0,0,0,0,0,0,0,3.3344,3.3344,3.3339,3.3343,3.3344,3.3346,3.3346,3.3341,3.3345,3.3348,3.3349,3.3349,3.3348,3.3347,3.3346,3.3337,3.3347,3.3347,3.3347,3.3347,3.3318,3.3318,0,0,0,0,0,0,3.3344,3.3344,3.3339,3.3339,3.3345,3.3346,3.3346,3.3344,3.3345,3.3346,3.3348,3.3349,3.3347,3.3347,3.3346,3.3332,3.3347,3.3347,3.3346,3.3319,3.3318,3.3317,0,0,0,0,0,0,3.3344,3.3343,3.3339,3.3342,3.3341,3.3345,3.3343,3.3344,3.3343,3.3346,3.3346,3.3347,3.3348,3.3347,3.334,3.3333,3.3346,3.3346,3.3319,3.3318,3.3318,3.3305,0,0,0,0,0,0,3.3344,3.3343,3.3339,3.3341,3.3341,3.3332,3.3343,3.3344,3.3342,3.3343,3.3344,3.3345,3.3348,3.334,3.3339,3.3332,3.3346,3.332,3.3319,3.3318,3.3306,3.3304,3.3302,0,0,0,0,0,3.3344,3.3336,3.3339,3.3338,3.3336,3.3332,3.3332,3.3336,3.3342,3.3338,3.3339,3.3345,3.3334,3.3339,3.3338,3.3331,3.332,3.3319,3.3318,3.3307,3.3304,3.3302,0,0,0,0,0,0,3.3332,3.3336,3.334,3.3332,3.3331,3.3334,3.3329,3.3333,3.3331,3.3332,3.3338,3.3338,3.3329,3.3329,3.3336,3.332,3.3328,3.3326,3.332,3.3317,3.3315,3.3315,3.3345,0,0,0,0,0,3.3329,3.3326,3.3329,3.3321,3.3321,3.3325,3.3323,3.3327,3.3326,3.3326,3.3327,3.3326,3.3323,3.332,3.3317,3.3306,3.3306,3.3301,3.3299,3.3297,3.3296,3.3289,3.3286,3.3314,3.3314,3.3314,0,0,3.3321,3.3323,3.332,3.3319,3.3319,3.3315,3.3325,3.332,3.3317,3.3325,3.3318,3.3319,3.3318,3.3309,3.3305,3.3309,3.3288,3.3296,3.3294,3.3294,3.3288,3.3285,3.3283,3.3313,3.3313,3.3313,0,0,3.3305,3.3307,3.33,3.33,3.3301,3.3303,3.3302,3.3303,3.3304,3.3297,3.3303,3.3299,3.3293,3.3292,3.3291,3.3274,3.3278,3.3273,3.3262,3.3256,3.3253,3.3251,3.3245,3.3242,3.3271,3.3271,3.3271,0,3.3296,3.3291,3.3296,3.3291,3.329,3.3298,3.3291,3.329,3.3289,3.3288,3.3293,3.3285,3.3285,3.3275,3.3271,3.327,3.3267,3.3272,3.3253,3.3251,3.325,3.3243,3.3241,3.327,3.3271,3.3271,3.3271,0,3.3278,3.3275,3.3269,3.3268,3.3266,3.326,3.3264,3.3262,3.3265,3.3267,3.3259,3.326,3.3256,3.3254,3.3258,3.3245,3.3247,3.3253,3.3261,3.3246,3.324,3.3238,3.3269,3.327,3.327,3.327,0,0,3.3255,3.3257,3.3255,3.3255,3.3255,3.3252,3.3246,3.3243,3.324,3.3239,3.3234,3.3228,3.3233,3.3231,3.3235,3.3229,3.3214,3.3235,3.3235,3.323,3.3199,3.3194,3.3192,3.3218,3.3217,3.3217,3.3199,0,3.3239,3.323,3.3234,3.3224,3.322,3.3227,3.3221,3.3221,3.3222,3.3218,3.322,3.3215,3.3223,3.3222,3.3216,3.3217,3.3208,3.3219,3.3212,3.3211,3.3211,3.3189,3.3184,3.3167,3.3196,3.3196,3.3196,0,3.322,3.3218,3.3207,3.3208,3.3206,3.3201,3.3199,3.3195,3.3195,3.3196,3.3194,3.3198,3.3191,3.32,3.319,3.3197,3.3195,3.3194,3.3194,3.3193,3.3202,3.3186,3.3161,3.3159,3.3192,3.3193,3.3193,0,3.3203,3.3198,3.319,3.319,3.3191,3.3187,3.3187,3.3187,3.3185,3.3182,3.3181,3.3177,3.3175,3.3172,3.3175,3.3181,3.3164,3.3173,3.3164,3.3164,3.316,3.316,3.3134,3.3159,3.3159,3.3159,3.3159,0,3.3184,3.3177,3.3183,3.3178,3.317,3.3175,3.3167,3.3168,3.3167,3.3162,3.3168,3.3163,3.3168,3.3163,3.3165,3.3156,3.3155,3.3155,3.3156,3.3155,3.3154,3.3152,3.3153,3.3159,3.3159,3.3159,3.3159,0,3.3164,3.3168,3.316,3.3162,3.3162,3.3156,3.3157,3.3152,3.3154,3.3147,3.3146,3.3149,3.3143,3.3146,3.314,3.3142,3.313,3.3132,3.313,3.3131,3.3121,3.3122,3.3092,3.3088,3.3117,3.3117,3.3116,0,3.3152,3.3146,3.3147,3.3145,3.3145,3.314,3.3138,3.3143,3.314,3.3138,3.3133,3.3129,3.3125,3.3116,3.3117,3.3112,3.3114,3.3104,3.3113,3.3112,3.3113,3.3113,3.3112,3.3102,3.3102,3.3101,3.3101,0,3.3129,3.3131,3.3128,3.3125,3.3122,3.312,3.3119,3.3116,3.3121,3.3117,3.3112,3.3109,3.3103,3.3098,3.3094,3.3093,3.3097,3.3098,3.3096,3.3094,3.3093,3.3092,3.3124,3.3099,3.3099,3.3099,3.3099,3.3099,3.3112,3.3107,3.3107,3.3103,3.3103,3.3101,3.3096,3.3098,3.3093,3.3089,3.3092,3.3086,3.3084,3.3079,3.3078,3.3072,3.3076,3.3073,3.3072,3.307,3.3069,3.3094,3.3071,3.3071,3.3071,3.3072,3.3072,0,3.3089,3.3089,3.3086,3.3083,3.308,3.3085,3.3083,3.308,3.3074,3.3073,3.3069,3.3063,3.3057,3.3058,3.3053,3.3048,3.305,3.3046,3.3046,3.3046,3.3066,3.3068,3.3045,3.3045,3.3045,3.3045,3.3045,3.3045,3.3077,3.3069,3.3071,3.3062,3.3063,3.3057,3.3055,3.3053,3.3052,3.3044,3.304,3.3041,3.304,3.3034,3.3029,3.303,3.3027,3.3023,3.3023,3.3042,3.3045,3.3047,3.3049,3.3022,3.3022,3.3004,3.3004,3.3003]}]]